Home   Weather   Mendoza   Past weeks

Flag for Argentina Past Weather in Mendoza, Mendoza, Argentina — Yesterday and Last 2 Weeks

Now
68 °F

Sunny.


Feels Like: 68 °F
Forecast: 63 / 81 °F
Wind: 13 mph from East

Location: Mendoza Aerodrome

Current Time: Dec 5, 2016 at 11:45:27 am

Latest Report: Dec 5, 2016 at 11:00 am


Visibility: 10 mi

Pressure: 29.92 "Hg (27.36 "Hg at 767m altitude)

Humidity: 28%

Dew Point: 34 °F

Location of MendozaLocation

Past Weather in Mendoza — Graph

°F

Mendoza Temperature Yesterday

Maximum temperature yesterday: 102 °F (at 7:00 pm)
Minimum temperature yesterday: 72 °F (at 6:00 am)
Average temperature yesterday: 85 °F

High & Low Weather Summary for the Past Weeks

 TemperatureHumidityPressure
High102 °F (Dec 4, 7:00 pm)94% (Nov 22, 3:00 am)30.30 "Hg (Nov 22, 3:00 am)
Low52 °F (Nov 22, 12:00 am)2% (Dec 4, 7:00 pm)29.45 "Hg (Dec 4, 6:00 pm)
Average73 °F49%29.94 "Hg
* Reported Nov 20 10:00 am — Dec 5 10:00 am, Mendoza, Weather by CustomWeather, © 2016

Note: Actual official high and low records may vary slightly from our data, if they occured in-between our weather recording intervals... More about our weather records

Advertising

Mendoza Weather History for the Previous 24 Hours

Scroll right to see more
 ConditionsComfort  
Time TempWeatherWind HumidityBarometerVisibility
10:00 am
Mon, Dec 5
66 °FSunny.12 mph40%29.92 "Hg10 mi
9:00 am64 °FSunny.7 mph40%29.95 "Hg10 mi
8:00 am64 °FPartly sunny.7 mph37%29.95 "HgN/A
7:00 am66 °FScattered clouds.12 mph35%29.92 "HgN/A
6:00 am66 °FPassing clouds.13 mph35%29.89 "HgN/A
5:00 am72 °FClear.12 mph47%29.77 "Hg10 mi
4:00 am72 °FClear.15 mph47%29.74 "Hg10 mi
3:00 am79 °FClear.9 mph45%29.65 "Hg10 mi
2:00 am81 °FClear.2 mph45%29.62 "Hg10 mi
1:00 am82 °FClear.7 mph42%29.62 "Hg10 mi
12:00 am81 °FClear.8 mph48%29.62 "Hg10 mi
11:00 pm
Sun, Dec 4
84 °FPassing clouds.7 mph40%29.62 "HgN/A
10:00 pm82 °FPassing clouds.3 mph11%29.56 "HgN/A
9:00 pm88 °FPassing clouds.3 mph9%29.53 "HgN/A
8:00 pm99 °FPassing clouds.8 mph5%N/AN/A
7:00 pm102 °FScattered clouds.9 mph2%29.45 "HgN/A
6:00 pm99 °FScattered clouds.7 mph21%29.45 "HgN/A
5:00 pm100 °FScattered clouds.15 mph20%N/AN/A
4:00 pm99 °FScattered clouds.3 mph21%N/AN/A
3:00 pm100 °FScattered clouds.15 mph22%N/AN/A
1:00 pm95 °FSunny.10 mph25%29.56 "Hg10 mi
12:00 pm90 °FSunny.13 mph29%29.62 "Hg10 mi
Weather by CustomWeather, © 2016

See weather overviewHow to use our weather pages